Meteo Giornale » Osservazioni meteo Olanda » Eindhoven

ore: 19:25 - Osservazioni Meteo Eindhoven
Lat. 51° 27' N Lon. 5° 25' E Alt. 23 metri s.l.m.

coperto

20 °C

Coperto

Temp. 24 Ore

14 °C

22 °C

Ovest/Nord-Ovest

7.4 Km/h

Dew point 12 °C

Umidità 59 %

Visibilità  10 Km

Il sole sorge alle ore 06:51

Il sole tramonta alle ore 20:25

Data e Ora Cielo e Fenomeni T °C DP °C Um. % Pres. hPa Vis. km Vento km/h
Oggi h: 19:25 coperto Coperto 20 12 59 1020 10 O/NO 7.4
Oggi h: 18:55 molto_nuvoloso Molto Nuvoloso 21 12 56 1020 10 O/NO 9.3
Oggi h: 18:25 molto_nuvoloso Molto Nuvoloso 21 12 56 1020 10 O/NO 7.4
Oggi h: 17:55 coperto Coperto 22 12 53 1020 10 O/NO 9.3
Oggi h: 17:25 coperto Coperto 22 12 53 1020 10 O/NO 9.3
Oggi h: 16:55 coperto Coperto 21 12 56 1020 10 O/NO 11.1
Oggi h: 16:25 molto_nuvoloso Molto Nuvoloso 21 12 56 1020 10 O 9.3
Oggi h: 15:55 coperto Coperto 22 12 53 1020 10 O 11.1
Oggi h: 15:25 molto_nuvoloso Molto Nuvoloso 21 12 56 1020 10 O/NO 13
Oggi h: 14:55 poco_nuvoloso Poco Nuvoloso 21 12 56 1020 10 O/NO 13
Oggi h: 14:25 molto_nuvoloso Molto Nuvoloso 21 13 60 1020 10 O/NO 14.8
Oggi h: 13:55 poco_nuvoloso Poco Nuvoloso 21 13 60 1020 10 O/NO 13
Oggi h: 13:25 coperto Coperto 20 14 68 1020 10 O 11.1
Oggi h: 12:55 molto_nuvoloso Molto Nuvoloso 19 14 72 1020 10 O 9.3
Oggi h: 12:25 coperto Coperto 19 14 72 1020 10 O 11.1
Oggi h: 11:55 molto_nuvoloso Molto Nuvoloso 19 16 82 1020 10 O 7.4
Oggi h: 11:25 coperto Coperto 18 16 88 1020 10 O/SO 7.4
Oggi h: 10:55 foschia Foschia 17 16 93 1019 7 N 5.5
Oggi h: 10:25 foschia Foschia 17 16 93 1019 6 O/SO 11.1
Oggi h: 09:55 foschia Foschia 17 16 93 1019 5 O/SO 11.1
Oggi h: 09:25 foschia Foschia 17 16 93 1019 5 SO 13
Oggi h: 08:55 foschia Foschia 16 16 100 1019 5 SO 7.4
Oggi h: 08:25 foschia Foschia 16 15 93 1018 5 SO 7.4
Oggi h: 07:55 foschia Foschia 16 15 93 1018 5 SO 7.4
Oggi h: 07:25 foschia Foschia 16 15 93 1018 5 S/SO 9.3
Oggi h: 06:55 foschia Foschia 15 15 100 1018 7 N 3.7
Oggi h: 06:25 nuvoloso Nuvoloso 15 15 100 1018 10 O/SO 7.4
Oggi h: 05:55 coperto Coperto 15 14 93 1017 10 N 5.5
Oggi h: 05:25 coperto Coperto 14 14 100 1017 10 N 5.5
Oggi h: 04:55 coperto Coperto 15 14 93 1017 10 SO 7.4
Oggi h: 04:25 coperto Coperto 15 15 100 1017 10 SO 9.3
Oggi h: 03:55 foschia Foschia 16 15 93 1017 9 SO 9.3
Oggi h: 03:25 coperto Coperto 16 15 93 1017 10 S/SO 9.3
Oggi h: 02:55 nuvoloso_piovaschi Pioggia 16 15 93 1017 8 SO 11.1
Oggi h: 02:25 coperto Coperto 16 14 87 1017 10 O/SO 7.4
Oggi h: 01:25 coperto Coperto 16 14 87 1017 10 SO 13
Oggi h: 00:55 coperto Coperto 17 14 82 1017 10 SO 11.1
Oggi h: 00:25 nuvoloso Nuvoloso 17 14 82 1016 10 SO 11.1
Ieri h: 23:55 molto_nuvoloso Molto Nuvoloso 16 13 82 1016 10 S/SO 13
Ieri h: 23:25 sereno Sereno 16 13 82 1016 10 SO 11.1
Ieri h: 22:55 poco_nuvoloso Poco Nuvoloso 16 12 77 1016 10 S/SO 9.3
Ieri h: 22:25 coperto Coperto 16 13 82 1016 10 S/SO 7.4
Ieri h: 21:55 sereno Sereno 16 13 82 1016 10 SO 7.4
Ieri h: 21:25 sereno Sereno 17 13 77 1015 10 SO 7.4
Ieri h: 20:55 poco_nuvoloso Poco Nuvoloso 17 12 72 1015 10 SO 7.4